This is the latest recevied weather packets stored in our database for station/object WA4TPR. If no packets are shown the sender has not sent any weather packets the latest 10 day(s).
| Time | Temp. | Humidity | Pressure | Rain* | Wind** | Luminosity | Snow |
|---|---|---|---|---|---|---|---|
| 1777992813 | 27.22° C | 71% | 1020 hPa | 0 mm | - | 650 W/m² | - |
| 1777992511 | 26.67° C | 73% | 1020.1 hPa | 0 mm | - | 701 W/m² | - |
| 1777992209 | 26.67° C | 73% | 1019.7 hPa | 0 mm | - | 690 W/m² | - |
| 1777991906 | 26.67° C | 73% | 1019.8 hPa | 0 mm | - | 675 W/m² | - |
| 1777991603 | 26.67° C | 73% | 1019.6 hPa | 0 mm | - | 305 W/m² | - |
| 1777991301 | 26.11° C | 73% | 1019.6 hPa | 0 mm | - | 538 W/m² | - |
| 1777990998 | 26.11° C | 75% | 1019.7 hPa | 0 mm | - | 574 W/m² | - |
| 1777990695 | 26.11° C | 76% | 1019.6 hPa | 0 mm | - | 540 W/m² | - |
| 1777990393 | 26.11° C | 75% | 1019.8 hPa | 0 mm | - | 505 W/m² | - |
| 1777989785 | 26.11° C | 75% | 1019.5 hPa | 0 mm | - | 486 W/m² | - |
| 1777989482 | 26.11° C | 75% | 1019.4 hPa | 0 mm | - | 470 W/m² | - |
| 1777989178 | 25.56° C | 78% | 1019.5 hPa | 0 mm | - | 443 W/m² | - |
| 1777988874 | 25.56° C | 79% | 1019.7 hPa | 0 mm | - | 426 W/m² | - |
| 1777988572 | 25° C | 79% | 1019.6 hPa | 0 mm | - | 428 W/m² | - |
| 1777988268 | 25° C | 80% | 1019.8 hPa | 0 mm | - | 404 W/m² | - |
| 1777987965 | 24.44° C | 81% | 1019.6 hPa | 0 mm | - | 405 W/m² | - |
| 1777987660 | 24.44° C | 81% | 1019.6 hPa | 0 mm | - | 163 W/m² | - |
| 1777987358 | 24.44° C | 81% | 1019.8 hPa | 0 mm | - | 319 W/m² | - |
| 1777987055 | 24.44° C | 81% | 1019.6 hPa | 0 mm | - | 309 W/m² | - |
| 1777986752 | 24.44° C | 81% | 1019.7 hPa | 0 mm | - | 294 W/m² | - |
| 1777986450 | 23.89° C | 83% | 1019.8 hPa | 0 mm | - | 291 W/m² | - |
| 1777986149 | 23.33° C | 85% | 1019.6 hPa | 0 mm | - | 301 W/m² | - |
| 1777985845 | 23.33° C | 86% | 1019.5 hPa | 0 mm | - | 132 W/m² | - |
| 1777985542 | 23.33° C | 85% | 1019.7 hPa | 0 mm | - | 166 W/m² | - |
| 1777985239 | 22.78° C | 86% | 1019.9 hPa | 0 mm | - | 183 W/m² | - |
* Rain latest hour (hover to see other rain measurements)
** Current wind speed in m/s (hover to see current wind gust speed)